Location: Dammartin
(48.9032°N, 1.6195°E)
Time: 14:19:46
(UTC+00:00)

YUBILEINY - Pass Details

Date: 11 December 2023
Orbit: 1479 x 1508 km, 82.5° (Epoch: 02 March)

Event Time Altitude Azimuth Distance (km) Brightness Sun altitude
Rises 20:21:43 0° 347° (NNW) 4,626 ? -42.3°
Reaches altitude 10° 20:24:41 10° 343° (NNW) 3,639 ? -42.8°
Enters shadow 20:32:16 51° 287° (WNW) 1,809 ? -44.0°
